Voltar ao catálogo

FENGYUN 1C DEB

AtivoSSO
NORAD 31350·DEBRIS·🇨🇳 China

Lançado May 10, 1999 de Taiyuan Satellite Launch Center

Loading…

Próximas Passagens (próximas 24 horas)

TLE

EnvelhecendoSource: Space-Track

Época: Sep 4, 2026, 18:08 UTC

1 31350U 99025BRE 26247.75559176  .00000545  00000-0  20071-3 0  9990
2 31350  98.9728  75.1227 0066873  66.2096 294.6081 14.35529950740699

Acompanhe FENGYUN 1C DEB em tempo real com AllMySat

Download on the App Store